Overview Statistics Trail Chart Weather Telemetry Raw packets
 

This is the latest recevied weather packets stored in our database for station/object SV1JSO-13. If no packets are shown the sender has not sent any weather packets the latest 10 day(s).

<< 68 69 70 71 72 73 74 >>
Time Temp. Humidity Pressure Rain* Wind** Luminosity Snow
1788181800 30.56° C 47% 1007.8 hPa 0 mm - 515 W/m² -
1788181500 30.56° C 46% 1008 hPa 0 mm - 531 W/m² -
1788181200 30.56° C 46% 1008.1 hPa 0 mm - 540 W/m² -
1788180901 31.11° C 43% 1008.1 hPa 0 mm - 551 W/m² -
1788180600 31.11° C 43% 1008.2 hPa 0 mm - 563 W/m² -
1788180300 31.11° C 43% 1008.1 hPa 0 mm - 574 W/m² -
1788180000 31.11° C 44% 1008.3 hPa 0 mm - 585 W/m² -
1788179700 30.56° C 44% 1008.3 hPa 0 mm - 595 W/m² -
1788179403 31.11° C 45% 1008.2 hPa 0 mm - 603 W/m² -
1788179100 30.56° C 48% 1008.4 hPa 0 mm - 615 W/m² -
1788178800 30.56° C 44% 1008.3 hPa 0 mm - 621 W/m² -
1788178500 30.56° C 43% 1008.4 hPa 0 mm - 631 W/m² -
1788178200 30.56° C 44% 1008.4 hPa 0 mm - 643 W/m² -
1788177900 30.56° C 45% 1008.5 hPa 0 mm - 648 W/m² -
1788177600 30.56° C 42% 1008.6 hPa 0 mm - 660 W/m² -
1788177300 31.11° C 43% 1008.6 hPa 0 mm - 666 W/m² -
1788177000 30.56° C 44% 1008.5 hPa 0 mm - 672 W/m² -
1788176700 30.56° C 42% 1008.6 hPa 0 mm - 682 W/m² -
1788176400 31.11° C 42% 1008.7 hPa 0 mm - 690 W/m² -
1788176100 30.56° C 43% 1008.8 hPa 0 mm - 698 W/m² -
1788175801 30° C 46% 1008.8 hPa 0 mm - 707 W/m² -
1788175500 30.56° C 45% 1008.9 hPa 0 mm - 711 W/m² -
1788175200 30.56° C 45% 1008.8 hPa 0 mm - 712 W/m² -
1788174900 29.44° C 50% 1008.9 hPa 0 mm - 720 W/m² -
1788174600 29.44° C 50% 1008.9 hPa 0 mm - 721 W/m² -

* Rain latest hour (hover to see other rain measurements)
** Current wind speed in m/s (hover to see current wind gust speed)